Regional Weather Roundup
Issued by NWS

Home | Current Version | Previous Version | Graphics & Text | Print | Product List | Glossary On
Versions: 1 2 3 4 5 6 7 8 9 10 11 12 13 14 15 16 17 18 19 20 21 22 23 24 25 26 27 28 29 30 31 32 33 34 35 36 37 38 39 40 41 42 43 44 45 46 47 48 49 50
000
ASUS43 KLSX 081407
RWRMO

WEATHER SUMMARY FOR MISSOURI
NATIONAL WEATHER SERVICE SPRINGFIELD MO
800 AM CST MON FEB 08 2016

NOTE: "FAIR" INDICATES FEW OR NO CLOUDS BELOW 12,000 FEET WITH NO
       SIGNIFICANT WEATHER AND/OR OBSTRUCTIONS TO VISIBILITY.
       CURRENT SKY AND/OR WEATHER CONDITIONS ARE NOT AVAILABLE FOR
       CHILLICOTHE AND FARMINGTON.

MOZ001>031-035>038-043-044-053-054-081500-
...NORTHERN AND WESTERN MISSOURI...

CITY           SKY/WX    TMP DP  RH WIND       PRES   REMARKS
KANSAS CTY INT CLOUDY    31  18  58 NW17G35   30.00R WCI  19
KANSAS C DTWN  CLOUDY    33  17  51 NW23G33   30.00S WCI  21
LEE`S SUMMIT   CLOUDY    31  16  54 NW24G37   29.99S WCI  17
ST JOSEPH      FLURRIES  30  20  66 N23G30    30.02R WCI  17
CHILLICOTHE      N/A     27  18  69 NW17G31   29.96S WCI  14
KIRKSVILLE     FLURRIES  21  11  65 NW21G35   29.88R WCI   5

$$
MOZ066>068-077>081-088>096-101>105-081500-
...SOUTHWEST MISSOURI...

CITY           SKY/WX    TMP DP  RH WIND       PRES   REMARKS
SPRINGFIELD    CLOUDY    34  17  50 NW15G22   29.96S WCI  24
JOPLIN         CLOUDY    33  19  56 W14       30.06S WCI  23

$$
MOZ032>034-039>042-045>050-055>058-069>072-081500-
...CENTRAL MISSOURI...

CITY           SKY/WX    TMP DP  RH WIND       PRES   REMARKS
COLUMBIA       CLOUDY    27  12  53 NW32G48   29.89R WCI  10
JEFFERSON CITY CLOUDY    29  14  53 NW30G40   29.92R WCI  13
ROLLA          CLOUDY    27  22  81 NW20G26   29.86R HAZE    WCI  13
SEDALIA        FLURRIES  30  20  66 NW29G37   29.97R WCI  15
WHITEMAN AFB   FLURRIES  30  22  70 NW16G23   29.95S WCI  19
WARRENSBURG    CLOUDY    32  21  64 NW18G26   29.98S WCI  20
OSAGE BEACH    CLOUDY    30  19  64 W9G21     29.93S WCI  22

$$
MOZ051-052-059>065-081500-
...EAST CENTRAL MISSOURI...

CITY           SKY/WX    TMP DP  RH WIND       PRES   REMARKS
ST LOUIS INTL  FLURRIES  31  18  58 NW18G29   29.82R WCI  19
SPIRIT OF STL  CLOUDY    30  16  56 NW22G32   29.83R WCI  17
ST CHARLES     FLURRIES  30  20  66 NW26G32   29.81R WCI  16

$$
MOZ072>076-082>087-097>100-106>115-081500-
...SOUTH CENTRAL AND SOUTHEAST MISSOURI...

CITY           SKY/WX    TMP DP  RH WIND       PRES   REMARKS
CAPE GIRARDEAU CLOUDY    37  26  64 NW13      29.83S WCI  29
FARMINGTON     MIX PCPN  31  24  75 NW15G26   29.83R WCI  20
POPLAR BLUFF   CLOUDY    39  23  52 W9        29.85S
WEST PLAINS    MOCLDY    34  16  47 NW21G32   29.90R WCI  22

$$



USA.gov is the U.S. government's official web portal to all federal, state and local government web resources and services.